Weather History for Kankakee, IL

Change the Weather History Date:

Tuesday, February 19, 2013

  Actual Average Record
Temperature  
Mean Temperature 20 °F -  
Max Temperature 28 °F 39 °F 54 °F (1983)
Min Temperature 12 °F 22 °F -9 °F (1979)
Degree Days  
Heating Degree Days 44    
Moisture  
Dew Point 11 °F    
Average Humidity 74    
Maximum Humidity 88    
Minimum Humidity 68    
Precipitation  
Precipitation 0.00 in - - ()
Sea Level Pressure  
Sea Level Pressure 29.93 in    
Wind  
Wind Speed 26 mph (West)    
Max Wind Speed 33 mph    
Max Gust Speed 40 mph    
Visibility 10 miles    
Events Snow    
Averages and records for this station are not official NWS values.
T = Trace of Precipitation, MM = Missing Value Source: NWS Daily Summary

Daily Weather History Graph

Daily Weather History Graph

Search for Another Location

Airport:

Trip Planner

Search our weather history database for the weather conditions in past years. The results will help you decide how hot, cold, wet, or windy it might be!

Date:

Astronomy

Feb. 19, 2013 Rise Set
Actual Time 6:40 AM CST 5:30 PM CST
Civil Twilight 6:12 AM CST 5:58 PM CST
Nautical Twilight 5:40 AM CST 6:31 PM CST
Astronomical Twilight 5:08 AM CST 7:02 PM CST
Moon 12:00 PM CST (2/19) 2:13 AM CST (2/19)
Length of Visible Light 11h 46m
Length of Day
10h 50m
Waxing Gibbous, 67% of the Moon is Illuminated
Feb 19
Waxing Gibbous
Feb 25
Full
Mar 4
Last Quarter
Mar 11
New
Mar 19
First Quarter

Hourly Weather History & Observations

Time (CST) Temp. Windchill Dew Point Humidity Pressure Visibility Wind Dir Wind Speed Gust Speed Precip Events Conditions
12:15 AM 28.2 °F 12.5 °F 25.0 °F 88% 29.65 in 10.0 mi West 29.9 mph 36.8 mph N/A   Overcast
12:35 AM 27.1 °F 11.8 °F 23.5 °F 86% 29.65 in 10.0 mi West 26.5 mph 35.7 mph N/A   Overcast
12:55 AM 25.9 °F 10.4 °F 21.6 °F 84% 29.67 in 10.0 mi West 25.3 mph 39.1 mph N/A   Overcast
1:15 AM 26.1 °F 9.8 °F 21.7 °F 84% 29.68 in 10.0 mi West 28.8 mph 38.0 mph N/A   Overcast
1:35 AM 25.5 °F 9.7 °F 21.0 °F 83% 29.69 in 10.0 mi West 26.5 mph 36.8 mph N/A   Overcast
1:55 AM 25.2 °F 10.1 °F 20.5 °F 82% 29.71 in 10.0 mi WSW 23.0 mph 33.4 mph N/A   Overcast
2:15 AM 23.9 °F 7.8 °F 19.0 °F 82% 29.72 in 10.0 mi West 25.3 mph 34.5 mph N/A   Overcast
2:35 AM 23.0 °F 5.7 °F 17.2 °F 79% 29.73 in 10.0 mi WSW 28.8 mph 36.8 mph N/A   Overcast
2:55 AM 22.5 °F 5.5 °F 17.2 °F 80% 29.74 in 10.0 mi West 26.5 mph 36.8 mph N/A   Overcast
3:15 AM 21.7 °F 4.3 °F 16.3 °F 80% 29.74 in 10.0 mi West 27.6 mph 34.5 mph N/A Snow Light Snow
3:35 AM 21.7 °F 3.4 °F 15.3 °F 76% 29.75 in 10.0 mi West 31.1 mph 36.8 mph N/A   Overcast
3:55 AM 21.4 °F 4.1 °F 14.9 °F 76% 29.75 in 10.0 mi West 26.5 mph 35.7 mph N/A   Overcast
4:15 AM 21.2 °F 4.2 °F 14.9 °F 77% 29.75 in 10.0 mi West 25.3 mph 34.5 mph N/A   Overcast
4:35 AM 21.0 °F 3.6 °F 15.6 °F 80% 29.76 in 7.0 mi WSW 26.5 mph 33.4 mph N/A Snow Light Snow
4:55 AM 19.4 °F 1.4 °F 12.7 °F 75% 29.77 in 10.0 mi West 26.5 mph 36.8 mph N/A   Overcast
5:15 AM 18.9 °F 0.7 °F 12.9 °F 78% 29.78 in 10.0 mi West 26.5 mph 40.3 mph N/A Snow Light Snow
5:35 AM 19.4 °F 1.8 °F 14.0 °F 80% 29.78 in 10.0 mi West 25.3 mph 34.5 mph N/A Snow Light Snow
5:55 AM 18.5 °F -0.4 °F 11.1 °F 73% 29.79 in 10.0 mi West 28.8 mph 40.3 mph N/A   Overcast
6:15 AM 18.0 °F -1.1 °F 10.0 °F 71% 29.80 in 10.0 mi West 28.8 mph 38.0 mph N/A Snow Light Snow
6:35 AM 17.6 °F -0.3 °F 11.3 °F 76% 29.81 in 10.0 mi West 24.2 mph 33.4 mph N/A   Overcast
6:55 AM 17.2 °F -0.8 °F 10.4 °F 75% 29.82 in 10.0 mi West 24.2 mph 29.9 mph N/A   Overcast
7:15 AM 16.0 °F -3.5 °F 9.7 °F 76% 29.83 in 7.0 mi West 27.6 mph 39.1 mph N/A Snow Light Snow
7:35 AM 15.8 °F -4.4 °F 8.6 °F 73% 29.84 in 10.0 mi West 29.9 mph 36.8 mph N/A   Overcast
7:55 AM 15.6 °F -2.9 °F 8.4 °F 73% 29.85 in 10.0 mi West 24.2 mph 36.8 mph N/A   Overcast
8:15 AM 16.2 °F -2.2 °F 9.5 °F 75% 29.86 in 10.0 mi West 24.2 mph 38.0 mph N/A   Overcast
8:35 AM 16.3 °F -3.0 °F 8.8 °F 72% 29.87 in 10.0 mi West 27.6 mph 40.3 mph N/A   Overcast
8:55 AM 16.9 °F -2.9 °F 8.8 °F 71% 29.87 in 10.0 mi West 29.9 mph 36.8 mph N/A   Overcast
9:15 AM 16.3 °F -2.3 °F 9.0 °F 73% 29.89 in 10.0 mi West 25.3 mph 32.2 mph N/A   Overcast
9:35 AM 14.7 °F -4.9 °F 7.3 °F 73% 29.90 in 10.0 mi West 26.5 mph 34.5 mph N/A   Overcast
9:55 AM 14.7 °F -4.9 °F 7.0 °F 71% 29.91 in 10.0 mi West 26.5 mph 35.7 mph N/A   Overcast
10:15 AM 15.6 °F -3.6 °F 7.5 °F 70% 29.92 in 10.0 mi West 26.5 mph 35.7 mph N/A   Overcast
10:35 AM 15.1 °F -4.4 °F 7.3 °F 71% 29.93 in 10.0 mi West 26.5 mph 35.7 mph N/A   Overcast
10:55 AM 15.4 °F -3.9 °F 7.2 °F 70% 29.93 in 10.0 mi West 26.5 mph 36.8 mph N/A   Overcast
11:15 AM 15.8 °F -4.4 °F 7.7 °F 70% 29.94 in 10.0 mi West 29.9 mph 35.7 mph N/A   Overcast
11:35 AM 15.8 °F -5.2 °F 6.8 °F 68% 29.94 in 10.0 mi West 33.4 mph 40.3 mph N/A   Overcast
11:55 AM 16.0 °F -2.8 °F 7.5 °F 69% 29.94 in 10.0 mi West 25.3 mph 33.4 mph N/A   Overcast
12:15 PM 15.6 °F -4.6 °F 6.8 °F 68% 29.95 in 10.0 mi West 29.9 mph 39.1 mph N/A   Overcast
12:35 PM 15.6 °F -3.6 °F 6.8 °F 68% 29.95 in 10.0 mi West 26.5 mph 35.7 mph N/A   Overcast
12:55 PM 15.3 °F -3.4 °F 7.0 °F 70% 29.96 in 10.0 mi West 24.2 mph 34.5 mph N/A   Overcast
1:15 PM 15.6 °F -4.6 °F 7.5 °F 70% 29.97 in 7.0 mi West 29.9 mph 36.8 mph N/A   Overcast
1:35 PM 15.4 °F -4.2 °F 7.2 °F 70% 29.97 in 10.0 mi West 27.6 mph 34.5 mph N/A   Overcast
1:55 PM 15.4 °F -4.5 °F 7.5 °F 71% 29.98 in 7.0 mi West 28.8 mph 36.8 mph N/A   Overcast
2:15 PM 15.6 °F -2.9 °F 7.7 °F 71% 29.99 in 7.0 mi West 24.2 mph 33.4 mph N/A   Overcast
2:35 PM 16.0 °F -3.2 °F 8.4 °F 72% 30.00 in 7.0 mi West 26.5 mph 32.2 mph N/A   Overcast
2:55 PM 16.7 °F -2.2 °F 8.6 °F 70% 30.00 in 10.0 mi West 26.5 mph 33.4 mph N/A   Overcast
3:15 PM 16.9 °F -1.3 °F 8.8 °F 71% 30.02 in 10.0 mi West 24.2 mph 34.5 mph N/A   Overcast
3:35 PM 17.1 °F -0.3 °F 9.5 °F 72% 30.02 in 7.0 mi West 21.9 mph 26.5 mph N/A Snow Light Snow
3:55 PM 17.8 °F -0.4 °F 10.6 °F 73% 30.04 in 7.0 mi West 25.3 mph 29.9 mph N/A Snow Light Snow
4:15 PM 18.0 °F 1.3 °F 10.4 °F 72% 30.04 in 7.0 mi West 20.7 mph 26.5 mph N/A Snow Light Snow
4:35 PM 18.1 °F 0.8 °F 10.4 °F 72% 30.06 in 10.0 mi West 23.0 mph 29.9 mph N/A Snow Light Snow
4:55 PM 18.3 °F 2.6 °F 9.9 °F 70% 30.06 in 10.0 mi West 18.4 mph 28.8 mph N/A Snow Light Snow
5:15 PM 18.5 °F 3.3 °F 10.4 °F 71% 30.07 in 10.0 mi West 17.3 mph 28.8 mph N/A   Overcast
6:35 PM 19.0 °F 2.0 °F 10.6 °F 70% 30.09 in 10.0 mi West 23.0 mph 28.8 mph N/A   Overcast
6:55 PM 18.5 °F 2.4 °F 10.4 °F 71% 30.09 in 10.0 mi West 19.6 mph 26.5 mph N/A   Overcast
7:15 PM 18.9 °F 2.9 °F 10.9 °F 71% 30.10 in 10.0 mi West 19.6 mph 25.3 mph N/A   Overcast
7:35 PM 19.0 °F 2.4 °F 10.6 °F 70% 30.10 in 10.0 mi West 21.9 mph 29.9 mph N/A   Overcast
7:55 PM 18.5 °F 2.4 °F 10.2 °F 70% 30.10 in 10.0 mi West 19.6 mph 28.8 mph N/A Snow Light Snow
8:15 PM 17.6 °F 1.3 °F 10.2 °F 73% 30.12 in 10.0 mi WNW 19.6 mph 26.5 mph N/A Snow Light Snow
8:35 PM 17.6 °F 1.7 °F 9.5 °F 71% 30.12 in 10.0 mi West 18.4 mph 29.9 mph N/A   Overcast
8:55 PM 16.7 °F -1.5 °F 8.2 °F 69% 30.13 in 10.0 mi WNW 24.2 mph 31.1 mph N/A   Overcast
9:15 PM 16.3 °F 0.5 °F 7.7 °F 69% 30.14 in 10.0 mi WNW 17.3 mph 25.3 mph N/A   Overcast
9:35 PM 15.6 °F -0.4 °F 7.2 °F 69% 30.15 in 10.0 mi WNW 17.3 mph 25.3 mph N/A   Overcast
9:55 PM 15.3 °F -0.9 °F 6.4 °F 68% 30.16 in 10.0 mi WNW 17.3 mph 26.5 mph N/A Snow Light Snow
10:15 PM 14.7 °F -0.5 °F 5.7 °F 68% 30.17 in 10.0 mi NW 15.0 mph 20.7 mph N/A   Overcast
10:35 PM 14.4 °F 0.9 °F 5.7 °F 69% 30.17 in 10.0 mi WNW 11.5 mph 18.4 mph N/A   Overcast
10:55 PM 13.8 °F -1.1 °F 5.9 °F 71% 30.18 in 10.0 mi WNW 13.8 mph 19.6 mph N/A   Overcast
11:15 PM 13.8 °F -0.5 °F 6.6 °F 73% 30.19 in 10.0 mi WNW 12.7 mph 19.6 mph N/A   Overcast
11:35 PM 13.1 °F 0.9 °F 6.8 °F 76% 30.19 in 7.0 mi NW 9.2 mph 18.4 mph N/A Snow Light Snow
11:55 PM 12.2 °F -1.8 °F 6.8 °F 79% 30.20 in 7.0 mi WNW 11.5 mph 20.7 mph N/A Snow Light Snow